NORTHERN QUEENS  -  Air Quality Alert Air Quality Alert        SOUTHERN QUEENS  -  Air Quality Alert Air Quality Alert      

Active alerts

Northern Queens
  Details for Northern Queens Air Quality Alert
Southern Queens
  Details for Southern Queens Air Quality Alert


WXM80 ListenWXM80 Stop

You find our weather info also at:

UK Metoffice

WeatherCloud

Weather Underground

Northeastern Weather Network

AWEKAS

Citizen Weather Observer Program (CWOP)

HAMweather, WeatherForYou, PWS Weather


Weather Underground History page Text

Daily Summary for March 23, 2017 Units:  Metric    English   Both
« Previous Day
Next Day »
Daily Weekly Monthly Yearly Custom
  High: Low: Average:
Temperature: 5.6 °C -5 °C -0.1 °C
Dew Point: -3.6 °C -15.6 °C -12.1 °C
Humidity: 72 % 26 % 42 %
Wind Speed: 20.1 km/h 0 km/h 6.3 km/h
Wind Gust: 25.9 km/h - -
Wind:- - WNW
Pressure: 1034.8 hPa 1029.3 hPa -
Precipitation: 0 mm    
Historical Graphs
 
 
Tabular Data for March 23, 2017
Time Temperature Dew Point Pressure Wind Wind Speed Wind Gust Humidity Rainfall Rate (Hourly)
00:03 -3.8 °C -15.2 °C 1029.3 hPa NW 9.8 km/h 17.7 km/h 41 % 0 mm
00:08 -3.9 °C -15.2 °C 1029.7 hPa WNW 12.4 km/h 22.2 km/h 41 % 0 mm
00:13 -3.9 °C -14.9 °C 1029.7 hPa NW 20.1 km/h 24.1 km/h 42 % 0 mm
00:18 -3.9 °C -15.6 °C 1029.7 hPa NW 9 km/h 16.7 km/h 40 % 0 mm
00:23 -3.9 °C -15 °C 1029.7 hPa NNW 8.7 km/h 22.2 km/h 42 % 0 mm
00:28 -4 °C -15.3 °C 1030 hPa NNW 10.8 km/h 24.1 km/h 41 % 0 mm
00:33 -4.1 °C -15.1 °C 1030 hPa NW 6.8 km/h 14.8 km/h 42 % 0 mm
00:38 -4.1 °C -14.8 °C 1030 hPa WNW 9 km/h 20.9 km/h 43 % 0 mm
00:43 -4.1 °C -15.4 °C 1030 hPa WNW 10.3 km/h 18.5 km/h 41 % 0 mm
00:48 -4.2 °C -15.2 °C 1030 hPa North 10.3 km/h 16.7 km/h 42 % 0 mm
00:53 -4.2 °C -14.9 °C 1030 hPa NNW 6.8 km/h 13 km/h 43 % 0 mm
00:58 -4.2 °C -14.9 °C 1030 hPa WNW 8 km/h 16.7 km/h 43 % 0 mm
01:03 -4.3 °C -15.3 °C 1030 hPa North 9.2 km/h 17.7 km/h 42 % 0 mm
01:09 -4.3 °C -15 °C 1030 hPa NNW 6.9 km/h 14.8 km/h 43 % 0 mm
01:14 -4.3 °C -15.1 °C 1030 hPa NW 11.1 km/h 16.7 km/h 43 % 0 mm
01:19 -4.3 °C -15.1 °C 1030 hPa NNW 6.6 km/h 16.7 km/h 43 % 0 mm
01:24 -4.4 °C -14.8 °C 1030 hPa NW 6.4 km/h 16.7 km/h 44 % 0 mm
01:29 -4.4 °C -14.8 °C 1030.4 hPa North 8.9 km/h 14.5 km/h 44 % 0 mm
01:34 -4.4 °C -14.9 °C 1030.4 hPa NW 9.7 km/h 16.7 km/h 44 % 0 mm
01:39 -4.4 °C -14.9 °C 1030.4 hPa North 6.6 km/h 11.1 km/h 44 % 0 mm
01:44 -4.5 °C -14.7 °C 1030.4 hPa NW 5.6 km/h 11.1 km/h 45 % 0 mm
01:49 -4.5 °C -14.1 °C 1030.4 hPa WNW 8.4 km/h 20.9 km/h 47 % 0 mm
01:54 -4.5 °C -14.4 °C 1030.4 hPa NW 6.6 km/h 13 km/h 46 % 0 mm
01:59 -4.6 °C -14.4 °C 1030.4 hPa NW 4.7 km/h 13 km/h 46 % 0 mm
02:04 -4.6 °C -14.2 °C 1030.4 hPa NNW 7.2 km/h 11.1 km/h 47 % 0 mm
02:09 -4.6 °C -14.2 °C 1030.4 hPa NNW 6.6 km/h 18.5 km/h 47 % 0 mm
02:14 -4.6 °C -14.2 °C 1030.4 hPa NW 3.1 km/h 11.1 km/h 47 % 0 mm
02:19 -4.6 °C -14.2 °C 1030.4 hPa NW 9.3 km/h 16.7 km/h 47 % 0 mm
02:24 -4.6 °C -14 °C 1030.4 hPa NNW 5.6 km/h 7.4 km/h 48 % 0 mm
02:29 -4.7 °C -14 °C 1030.4 hPa NNW 4.5 km/h 7.4 km/h 48 % 0 mm
02:31 -4.7 °C -14 °C 1030.7 hPa North 6.9 km/h 14.5 km/h 48 % 0 mm
02:36 -4.7 °C -14.3 °C 1030.4 hPa NNW 8.2 km/h 13 km/h 47 % 0 mm
02:41 -4.7 °C -14 °C 1030.4 hPa NW 3.7 km/h 7.4 km/h 48 % 0 mm
02:46 -4.7 °C -14.1 °C 1030.4 hPa NNW 4 km/h 11.1 km/h 48 % 0 mm
02:48 -4.7 °C -14.1 °C 1030.7 hPa North 3.4 km/h 11.3 km/h 48 % 0 mm
02:53 -4.7 °C -14.1 °C 1030.7 hPa NNW 3.2 km/h 14.5 km/h 48 % 0 mm
02:58 -4.7 °C -13.8 °C 1030.4 hPa NW 7.9 km/h 16.7 km/h 49 % 0 mm
03:03 -4.7 °C -13.8 °C 1030.7 hPa NNW 4.8 km/h 16.1 km/h 49 % 0 mm
03:08 -4.7 °C -14.1 °C 1030.7 hPa NW 4.8 km/h 19.3 km/h 48 % 0 mm
03:13 -4.7 °C -14.1 °C 1030.7 hPa NNW 3.2 km/h 19.3 km/h 48 % 0 mm
03:18 -4.7 °C -13.8 °C 1030.7 hPa NNW 8 km/h 12.9 km/h 49 % 0 mm
03:23 -4.7 °C -13.8 °C 1030.7 hPa NNW 4.8 km/h 12.9 km/h 49 % 0 mm
03:27 -4.8 °C -13.6 °C 1030.7 hPa NNE 4.5 km/h 11.1 km/h 50 % 0 mm
03:32 -4.8 °C -13.4 °C 1030.7 hPa North 6.1 km/h 11.1 km/h 51 % 0 mm
03:37 -4.8 °C -13.9 °C 1030.7 hPa NNW 3.7 km/h 8 km/h 49 % 0 mm
03:42 -4.8 °C -13.6 °C 1030.7 hPa NNW 3.2 km/h 9.3 km/h 50 % 0 mm
03:47 -4.8 °C -13.6 °C 1030.7 hPa NNW 4.8 km/h 11.3 km/h 50 % 0 mm
03:52 -4.8 °C -13.7 °C 1030.7 hPa NNW 4.8 km/h 11.3 km/h 50 % 0 mm
03:58 -4.8 °C -13.7 °C 1030.7 hPa North 4.8 km/h 7.4 km/h 50 % 0 mm
04:03 -4.8 °C -13.7 °C 1030.7 hPa NW 4.2 km/h 5.6 km/h 50 % 0 mm
04:08 -4.8 °C -13.7 °C 1031 hPa North 6.1 km/h 9.3 km/h 50 % 0 mm
04:13 -4.9 °C -13.7 °C 1030.7 hPa NNW 4.7 km/h 13 km/h 50 % 0 mm
04:18 -4.9 °C -13.7 °C 1031 hPa NNE 4.3 km/h 9.3 km/h 50 % 0 mm
04:28 -4.9 °C -13.6 °C 1031 hPa NNW 3.2 km/h 6.4 km/h 51 % 0 mm
04:33 -4.9 °C -13.6 °C 1031 hPa North 6.1 km/h 9.3 km/h 51 % 0 mm
04:38 -4.9 °C -13.3 °C 1031 hPa North 3.1 km/h 7.4 km/h 52 % 0 mm
04:43 -5 °C -13.6 °C 1031.4 hPa NNW 5.1 km/h 9.3 km/h 51 % 0 mm
04:48 -5 °C -13.6 °C 1031.4 hPa NW 2.4 km/h 6.4 km/h 51 % 0 mm
04:53 -4.9 °C -13.3 °C 1031.4 hPa NNW 3.7 km/h 7.4 km/h 52 % 0 mm
04:58 -5 °C -13.3 °C 1031.4 hPa NW 5.8 km/h 14.8 km/h 52 % 0 mm
05:03 -5 °C -13.1 °C 1031.4 hPa NNW 3.1 km/h 5.6 km/h 53 % 0 mm
05:08 -4.9 °C -13.1 °C 1031.7 hPa NNE 3.1 km/h 8 km/h 53 % 0 mm
05:13 -5 °C -12.9 °C 1031.7 hPa North 1.3 km/h 5.6 km/h 54 % 0 mm
05:18 -5 °C -12.9 °C 1031.7 hPa North 1.6 km/h 3.7 km/h 54 % 0 mm
05:23 -5 °C -12.9 °C 1032.1 hPa NW 2.3 km/h 5.6 km/h 54 % 0 mm
05:28 -5 °C -13.1 °C 1032.1 hPa NW 1.4 km/h 5.6 km/h 53 % 0 mm
05:33 -5 °C -13.1 °C 1032.1 hPa NW 3.9 km/h 11.1 km/h 53 % 0 mm
05:38 -5 °C -13.3 °C 1032.1 hPa North 3.1 km/h 11.3 km/h 52 % 0 mm
05:43 -5 °C -13.1 °C 1032.1 hPa NNW 2.6 km/h 5.6 km/h 53 % 0 mm
05:48 -5 °C -12.9 °C 1032.4 hPa WNW 1.9 km/h 9.3 km/h 54 % 0 mm
05:53 -4.9 °C -13.3 °C 1032.4 hPa North 4 km/h 11.1 km/h 52 % 0 mm
05:58 -4.9 °C -13 °C 1032.4 hPa NNW 2.7 km/h 9.3 km/h 53 % 0 mm
06:03 -4.8 °C -13.2 °C 1032.7 hPa NW 6.4 km/h 18.5 km/h 52 % 0 mm
06:08 -4.8 °C -14.1 °C 1032.7 hPa North 10 km/h 14.5 km/h 48 % 0 mm
06:13 -4.7 °C -13.6 °C 1032.7 hPa NW 10.9 km/h 18.5 km/h 50 % 0 mm
06:18 -4.7 °C -13.6 °C 1032.7 hPa NNW 7.1 km/h 8 km/h 50 % 0 mm
06:24 -4.7 °C -13.3 °C 1032.7 hPa West 6 km/h 9.7 km/h 51 % 0 mm
06:29 -4.7 °C -13.8 °C 1033.1 hPa NW 4 km/h 7.4 km/h 49 % 0 mm
06:34 -4.7 °C -13.8 °C 1033.1 hPa North 6.4 km/h 8 km/h 49 % 0 mm
06:39 -4.6 °C -14 °C 1033.1 hPa NW 8 km/h 11.3 km/h 48 % 0 mm
06:44 -4.7 °C -13.5 °C 1033.1 hPa NNW 6.6 km/h 13 km/h 50 % 0 mm
06:49 -4.7 °C -14 °C 1033.1 hPa NNW 6.9 km/h 14.8 km/h 48 % 0 mm
06:54 -4.6 °C -13.5 °C 1033.4 hPa NNW 10 km/h 14.8 km/h 50 % 0 mm
06:59 -4.6 °C -13.2 °C 1033.4 hPa NW 7.4 km/h 11.1 km/h 51 % 0 mm
07:04 -4.6 °C -13.7 °C 1033.4 hPa NW 10.1 km/h 14.8 km/h 49 % 0 mm
07:09 -4.6 °C -13.7 °C 1033.4 hPa NNW 8.4 km/h 12.9 km/h 49 % 0 mm
07:14 -4.5 °C -13.6 °C 1033.7 hPa WNW 12.7 km/h 20.4 km/h 49 % 0 mm
07:19 -4.5 °C -14.1 °C 1033.7 hPa NW 7.2 km/h 11.1 km/h 47 % 0 mm
07:24 -4.4 °C -14.1 °C 1033.7 hPa NW 9.2 km/h 11.1 km/h 47 % 0 mm
07:29 -4.3 °C -13.4 °C 1033.7 hPa WNW 7.2 km/h 13 km/h 49 % 0 mm
07:34 -4.3 °C -13.7 °C 1034.1 hPa NNW 12.4 km/h 16.7 km/h 48 % 0 mm
07:40 -4.2 °C -13.6 °C 1034.1 hPa NW 4 km/h 9.3 km/h 48 % 0 mm
07:45 -4 °C -13.4 °C 1034.1 hPa North 6.4 km/h 13 km/h 48 % 0 mm
07:50 -3.9 °C -13.6 °C 1034.1 hPa NNW 10.5 km/h 18.5 km/h 47 % 0 mm
07:55 -3.8 °C -13.4 °C 1034.1 hPa NNW 6.9 km/h 24.1 km/h 47 % 0 mm
08:00 -3.7 °C -13.1 °C 1034.1 hPa NNW 5 km/h 9.3 km/h 48 % 0 mm
08:05 -3.6 °C -13.5 °C 1034.1 hPa NW 8.4 km/h 14.8 km/h 46 % 0 mm
08:10 -3.5 °C -13.7 °C 1034.1 hPa NW 5.6 km/h 18.5 km/h 45 % 0 mm
08:15 -3.4 °C -13.2 °C 1034.4 hPa WNW 9.7 km/h 16.7 km/h 47 % 0 mm
08:20 -3.3 °C -13.6 °C 1034.1 hPa WNW 7.7 km/h 16.7 km/h 45 % 0 mm
08:25 -3.2 °C -13.4 °C 1034.4 hPa WNW 13.5 km/h 18.5 km/h 45 % 0 mm
08:30 -3.1 °C -13.9 °C 1034.4 hPa NNW 6.9 km/h 25.9 km/h 43 % 0 mm
08:35 -2.9 °C -13.2 °C 1034.4 hPa NNW 11.6 km/h 18.5 km/h 45 % 0 mm
08:40 -2.7 °C -13.3 °C 1034.4 hPa NNW 9.5 km/h 13 km/h 44 % 0 mm
08:45 -2.6 °C -13.4 °C 1034.4 hPa NNW 6.6 km/h 14.5 km/h 43 % 0 mm
08:50 -2.4 °C -13.3 °C 1034.4 hPa West 9.3 km/h 13 km/h 43 % 0 mm
08:55 -2.3 °C -13.6 °C 1034.8 hPa WNW 8 km/h 17.7 km/h 42 % 0 mm
09:00 -2.2 °C -13.7 °C 1034.8 hPa NW 7.4 km/h 25.9 km/h 41 % 0 mm
09:05 -2.1 °C -13.3 °C 1034.8 hPa NW 6.8 km/h 16.7 km/h 42 % 0 mm
09:11 -2 °C -12.9 °C 1034.4 hPa NW 6.3 km/h 22.2 km/h 43 % 0 mm
09:16 -1.9 °C -12.9 °C 1034.8 hPa NW 9.2 km/h 18.5 km/h 43 % 0 mm
09:21 -1.8 °C -12.8 °C 1034.8 hPa North 12.9 km/h 20.4 km/h 43 % 0 mm
09:26 -1.7 °C -12.4 °C 1034.8 hPa NW 9 km/h 16.7 km/h 44 % 0 mm
09:31 -1.7 °C -12.3 °C 1034.8 hPa WNW 10.5 km/h 18.5 km/h 44 % 0 mm
09:36 -1.7 °C -12.9 °C 1034.8 hPa NW 10 km/h 18.5 km/h 42 % 0 mm
09:41 -1.6 °C -12.8 °C 1034.8 hPa NW 9 km/h 14.8 km/h 42 % 0 mm
09:46 -1.4 °C -12.7 °C 1034.8 hPa WNW 9.8 km/h 18.5 km/h 42 % 0 mm
09:51 -1.3 °C -13.2 °C 1034.8 hPa NW 11.6 km/h 25.7 km/h 40 % 0 mm
09:56 -1.3 °C -13.8 °C 1034.8 hPa NNW 14.2 km/h 18.5 km/h 38 % 0 mm
10:01 -1.2 °C -13.1 °C 1034.8 hPa NNW 8 km/h 14.8 km/h 40 % 0 mm
10:06 -0.9 °C -13.2 °C 1034.8 hPa NNW 10.1 km/h 14.8 km/h 39 % 0 mm
10:11 -0.8 °C -13.3 °C 1034.8 hPa NW 10.9 km/h 13 km/h 38 % 0 mm
10:16 -0.6 °C -13.6 °C 1034.8 hPa NW 8.2 km/h 11.1 km/h 37 % 0 mm
10:21 -0.6 °C -13.8 °C 1034.8 hPa North 8.7 km/h 14.8 km/h 36 % 0 mm
10:27 -0.4 °C -13.7 °C 1034.8 hPa NW 12.9 km/h 20.9 km/h 36 % 0 mm
10:32 -0.3 °C -13.2 °C 1034.8 hPa NW 4.7 km/h 18.5 km/h 37 % 0 mm
10:37 0 °C -13.3 °C 1034.8 hPa NNW 3.9 km/h 9.3 km/h 36 % 0 mm
10:42 0.3 °C -13 °C 1034.8 hPa NNW 8.9 km/h 14.8 km/h 36 % 0 mm
10:47 0.5 °C -13.2 °C 1034.8 hPa WNW 11.9 km/h 20.4 km/h 35 % 0 mm
10:52 0.6 °C -13.6 °C 1034.8 hPa WNW 11.3 km/h 11.3 km/h 34 % 0 mm
10:57 0.7 °C -13.1 °C 1034.8 hPa NW 8.5 km/h 18.5 km/h 35 % 0 mm
11:02 0.9 °C -12.8 °C 1034.8 hPa NNW 4.8 km/h 9.3 km/h 35 % 0 mm
11:07 1.3 °C -12.6 °C 1034.8 hPa NW 5.1 km/h 8 km/h 35 % 0 mm
11:12 1.5 °C -12.7 °C 1034.4 hPa North 5 km/h 8 km/h 34 % 0 mm
11:17 1.7 °C -12.9 °C 1034.4 hPa North 10.5 km/h 18.5 km/h 33 % 0 mm
11:22 2.2 °C -12.1 °C 1034.4 hPa NW 7.2 km/h 11.3 km/h 34 % 0 mm
11:23 2.2 °C -12.4 °C 1034.4 hPa NNW 9 km/h 11.3 km/h 33 % 0 mm
11:28 2.4 °C -13.1 °C 1034.4 hPa NW 9.3 km/h 13 km/h 31 % 0 mm
11:33 2.5 °C -13.8 °C 1034.4 hPa NW 7.7 km/h 13 km/h 29 % 0 mm
11:38 2.5 °C -13.3 °C 1034.4 hPa NNW 9.8 km/h 14.8 km/h 30 % 0 mm
11:43 2.7 °C -13.2 °C 1034.4 hPa NW 9 km/h 13 km/h 30 % 0 mm
11:48 2.8 °C -13.1 °C 1034.4 hPa North 10.6 km/h 13 km/h 30 % 0 mm
11:53 2.8 °C -13.1 °C 1034.4 hPa NW 8.9 km/h 18.5 km/h 30 % 0 mm
11:58 2.9 °C -12.2 °C 1034.4 hPa NNE 6.4 km/h 13 km/h 32 % 0 mm
12:03 3.2 °C -12.4 °C 1034.1 hPa NW 8.4 km/h 13 km/h 31 % 0 mm
12:08 3.3 °C -13.1 °C 1034.1 hPa NNW 6.1 km/h 14.8 km/h 29 % 0 mm
12:13 3.5 °C -12.5 °C 1034.1 hPa WNW 8.5 km/h 18.5 km/h 30 % 0 mm
12:19 3.6 °C -12.4 °C 1034.1 hPa WNW 7.9 km/h 11.3 km/h 30 % 0 mm
12:24 3.7 °C -12.3 °C 1034.1 hPa NW 5.3 km/h 14.8 km/h 30 % 0 mm
12:29 3.7 °C -12.8 °C 1034.1 hPa WNW 7.2 km/h 13 km/h 29 % 0 mm
12:34 3.7 °C -12.3 °C 1034.1 hPa WNW 6.8 km/h 19.3 km/h 30 % 0 mm
12:39 3.9 °C -10.9 °C 1033.7 hPa NNW 8.5 km/h 14.8 km/h 33 % 0 mm
12:40 3.9 °C -12.1 °C 1033.7 hPa WNW 6.9 km/h 13 km/h 30 % 0 mm
12:45 3.9 °C -13.4 °C 1033.7 hPa NW 9.3 km/h 13 km/h 27 % 0 mm
12:50 3.7 °C -12.3 °C 1033.7 hPa NW 7.4 km/h 13 km/h 30 % 0 mm
12:55 3.8 °C -11.8 °C 1033.7 hPa NNW 8.4 km/h 14.8 km/h 31 % 0 mm
13:01 4.2 °C -11.1 °C 1033.7 hPa NNW 9.7 km/h 16.1 km/h 32 % 0 mm
13:06 4.1 °C -11.9 °C 1033.7 hPa West 11.1 km/h 18.5 km/h 30 % 0 mm
13:11 4.2 °C -11.4 °C 1033.7 hPa WSW 12.4 km/h 19.3 km/h 31 % 0 mm
13:16 4.3 °C -11.3 °C 1033.7 hPa West 5.1 km/h 11.3 km/h 31 % 0 mm
13:21 4.3 °C -12.7 °C 1033.7 hPa West 7.4 km/h 11.1 km/h 28 % 0 mm
13:26 4.1 °C -12 °C 1033.7 hPa NW 4.5 km/h 14.8 km/h 30 % 0 mm
13:31 3.9 °C -13 °C 1033.4 hPa WSW 6.1 km/h 11.1 km/h 28 % 0 mm
13:36 3.8 °C -13.1 °C 1033.4 hPa WNW 10.6 km/h 18.5 km/h 28 % 0 mm
13:41 4 °C -12.1 °C 1033.4 hPa SW 10.8 km/h 20.9 km/h 30 % 0 mm
13:46 4.1 °C -12 °C 1033.4 hPa NW 2.6 km/h 6.4 km/h 30 % 0 mm
13:51 4.2 °C -12.7 °C 1033.4 hPa WNW 10.3 km/h 11.1 km/h 28 % 0 mm
13:56 4.4 °C -11.7 °C 1033.1 hPa West 9 km/h 16.7 km/h 30 % 0 mm
14:01 4.8 °C -12.2 °C 1033.1 hPa NW 10 km/h 16.7 km/h 28 % 0 mm
14:06 4.8 °C -12.2 °C 1033.1 hPa WNW 8.5 km/h 18.5 km/h 28 % 0 mm
14:11 4.8 °C -11.7 °C 1033.1 hPa WNW 9.5 km/h 17.7 km/h 29 % 0 mm
14:16 4.7 °C -12.8 °C 1033.1 hPa WNW 9.8 km/h 16.7 km/h 27 % 0 mm
14:21 4.6 °C -12 °C 1033.1 hPa WNW 11.4 km/h 18.5 km/h 29 % 0 mm
14:26 4.4 °C -12.5 °C 1033.1 hPa WNW 11.1 km/h 20.4 km/h 28 % 0 mm
14:31 4.5 °C -12.4 °C 1032.7 hPa West 2.6 km/h 8 km/h 28 % 0 mm
14:36 4.6 °C -11.5 °C 1032.7 hPa West 9.5 km/h 18.5 km/h 30 % 0 mm
14:41 4.7 °C -12.3 °C 1032.7 hPa NW 13.4 km/h 20.4 km/h 28 % 0 mm
14:46 4.7 °C -12.7 °C 1032.7 hPa WNW 12.2 km/h 20.4 km/h 27 % 0 mm
14:51 4.8 °C -12.2 °C 1032.7 hPa NW 9.5 km/h 18.5 km/h 28 % 0 mm
14:56 4.8 °C -11.7 °C 1032.7 hPa NW 5 km/h 9.7 km/h 29 % 0 mm
15:01 4.9 °C -11.7 °C 1032.7 hPa NW 8.5 km/h 18.5 km/h 29 % 0 mm
15:06 5.1 °C -11.6 °C 1032.7 hPa West 7.9 km/h 14.8 km/h 29 % 0 mm
15:11 5.1 °C -12.4 °C 1032.7 hPa NW 9.2 km/h 14.8 km/h 27 % 0 mm
15:16 5 °C -12.5 °C 1032.7 hPa WNW 10.3 km/h 14.8 km/h 27 % 0 mm
15:21 5 °C -12.9 °C 1032.4 hPa NW 6.9 km/h 18.5 km/h 26 % 0 mm
15:26 4.9 °C -12.1 °C 1032.4 hPa WSW 6.9 km/h 14.5 km/h 28 % 0 mm
15:31 4.7 °C -12.7 °C 1032.4 hPa NW 15.1 km/h 22.2 km/h 27 % 0 mm
15:36 4.7 °C -12.8 °C 1032.4 hPa WNW 9.7 km/h 14.8 km/h 27 % 0 mm
15:41 4.6 °C -12.9 °C 1032.4 hPa West 12.2 km/h 20.4 km/h 27 % 0 mm
15:46 4.6 °C -12.4 °C 1032.4 hPa WSW 7.7 km/h 16.7 km/h 28 % 0 mm
15:51 4.7 °C -12.8 °C 1032.4 hPa WSW 13.2 km/h 16.7 km/h 27 % 0 mm
15:56 4.8 °C -11.8 °C 1032.4 hPa SW 11.1 km/h 13 km/h 29 % 0 mm
16:01 4.8 °C -12.6 °C 1032.4 hPa West 9.2 km/h 20.9 km/h 27 % 0 mm
16:06 4.9 °C -12.1 °C 1032.1 hPa West 8 km/h 13 km/h 28 % 0 mm
16:11 5.1 °C -12.9 °C 1032.1 hPa WNW 9 km/h 17.7 km/h 26 % 0 mm
16:17 5.1 °C -12.9 °C 1032.1 hPa NW 8.5 km/h 18.5 km/h 26 % 0 mm
16:22 5.2 °C -12.8 °C 1032.1 hPa West 7.6 km/h 13 km/h 26 % 0 mm
16:27 5.3 °C -11.8 °C 1032.1 hPa West 8.2 km/h 16.7 km/h 28 % 0 mm
16:32 5.3 °C -12.7 °C 1032.1 hPa WNW 6.4 km/h 14.8 km/h 26 % 0 mm
16:37 5.4 °C -12.6 °C 1032.1 hPa NNW 3.5 km/h 11.1 km/h 26 % 0 mm
16:42 5.5 °C -11.2 °C 1032.1 hPa West 6.6 km/h 11.1 km/h 29 % 0 mm
16:47 5.6 °C -11.6 °C 1032.1 hPa WNW 8.4 km/h 13 km/h 28 % 0 mm
16:52 5.6 °C -11.1 °C 1032.1 hPa NW 1.8 km/h 5.6 km/h 29 % 0 mm
16:57 5.5 °C -12.5 °C 1031.7 hPa NW 9 km/h 12.9 km/h 26 % 0 mm
17:02 5.6 °C -12.5 °C 1031.7 hPa NW 5 km/h 9.3 km/h 26 % 0 mm
17:07 5.5 °C -12.5 °C 1031.7 hPa NW 7.4 km/h 16.1 km/h 26 % 0 mm
17:12 5.3 °C -12.7 °C 1031.7 hPa WNW 6.4 km/h 16.7 km/h 26 % 0 mm
17:17 5.2 °C -12.3 °C 1031.4 hPa WNW 2.7 km/h 17.7 km/h 27 % 0 mm
17:22 5.1 °C -12.9 °C 1031.7 hPa NW 5.1 km/h 11.1 km/h 26 % 0 mm
17:27 4.9 °C -12.6 °C 1031.4 hPa WNW 1.8 km/h 5.6 km/h 27 % 0 mm
17:31 4.8 °C -13.2 °C 1031.7 hPa WNW 5.1 km/h 13 km/h 26 % 0 mm
17:36 4.7 °C -12.8 °C 1031.7 hPa WNW 2.7 km/h 9.3 km/h 27 % 0 mm
17:41 4.6 °C -12.9 °C 1031.7 hPa West 0.8 km/h 7.4 km/h 27 % 0 mm
17:46 4.5 °C -12.9 °C 1031.7 hPa North 5 km/h 9.3 km/h 27 % 0 mm
17:52 4.4 °C -12.1 °C 1031.7 hPa West 6.4 km/h 11.1 km/h 29 % 0 mm
17:57 4.4 °C -12.9 °C 1031.7 hPa West 7.2 km/h 9.3 km/h 27 % 0 mm
18:02 4.4 °C -13.5 °C 1031.7 hPa WNW 7.9 km/h 11.1 km/h 26 % 0 mm
18:07 4.3 °C -13.1 °C 1031.7 hPa NW 4.5 km/h 9.3 km/h 27 % 0 mm
18:12 4.3 °C -13.1 °C 1031.7 hPa West 5.5 km/h 9.7 km/h 27 % 0 mm
18:17 4.2 °C -13.2 °C 1031.7 hPa WNW 3.5 km/h 11.1 km/h 27 % 0 mm
18:22 4.2 °C -13.2 °C 1031.7 hPa West 7.4 km/h 11.1 km/h 27 % 0 mm
18:27 4.2 °C -13.7 °C 1031.7 hPa West 4.7 km/h 9.3 km/h 26 % 0 mm
18:32 4.1 °C -12.8 °C 1031.7 hPa West 0.2 km/h 5.6 km/h 28 % 0 mm
18:37 4.1 °C -12 °C 1031.7 hPa WSW 3.7 km/h 9.3 km/h 30 % 0 mm
18:42 4 °C -11.7 °C 1032.1 hPa NW 2.3 km/h 9.3 km/h 31 % 0 mm
18:47 3.9 °C -12.1 °C 1032.1 hPa West 7.4 km/h 8 km/h 30 % 0 mm
18:52 3.9 °C -12.2 °C 1032.1 hPa West 4.3 km/h 9.7 km/h 30 % 0 mm
18:57 3.8 °C -12.2 °C 1031.7 hPa NW 4.3 km/h 8 km/h 30 % 0 mm
19:02 3.8 °C -12.2 °C 1032.1 hPa WNW 3.2 km/h 5.6 km/h 30 % 0 mm
19:07 3.7 °C -12.3 °C 1032.1 hPa West 3.5 km/h 6.4 km/h 30 % 0 mm
19:12 3.7 °C -12.3 °C 1032.1 hPa West 1 km/h 6.4 km/h 30 % 0 mm
19:17 3.6 °C -12.4 °C 1032.1 hPa West 2.4 km/h 5.6 km/h 30 % 0 mm
19:22 3.5 °C -12.1 °C 1032.4 hPa WNW 2.7 km/h 7.4 km/h 31 % 0 mm
19:27 3.4 °C -12.2 °C 1032.1 hPa WNW 0.2 km/h 1.9 km/h 31 % 0 mm
19:32 3.3 °C -11.8 °C 1032.4 hPa WNW 0.6 km/h 3.7 km/h 32 % 0 mm
19:37 3.3 °C -11.9 °C 1032.1 hPa WNW 0.3 km/h 1.6 km/h 32 % 0 mm
19:42 3.2 °C -11.2 °C 1032.1 hPa WNW 0.2 km/h 1.6 km/h 34 % 0 mm
19:47 3.1 °C -10.9 °C 1032.1 hPa Calm   3.7 km/h 35 % 0 mm
19:52 2.9 °C -10.7 °C 1032.1 hPa Calm     36 % 0 mm
19:57 2.8 °C -10.1 °C 1032.1 hPa WNW 1.9 km/h 3.7 km/h 38 % 0 mm
20:02 2.6 °C -10 °C 1032.4 hPa WNW 1.1 km/h 3.7 km/h 39 % 0 mm
20:07 2.4 °C -10.1 °C 1032.4 hPa WNW 1.6 km/h 3.7 km/h 39 % 0 mm
20:12 2.3 °C -9.9 °C 1032.7 hPa Calm     40 % 0 mm
20:17 2.2 °C -10.1 °C 1032.7 hPa Calm     40 % 0 mm
20:22 1.9 °C -9.7 °C 1032.7 hPa WNW 1.1 km/h 3.7 km/h 42 % 0 mm
20:27 1.7 °C -9.8 °C 1032.7 hPa Calm   1.6 km/h 42 % 0 mm
20:32 1.6 °C -10.3 °C 1032.7 hPa Calm     41 % 0 mm
20:37 1.4 °C -10.1 °C 1032.7 hPa Calm     42 % 0 mm
20:42 1.2 °C -10.3 °C 1032.7 hPa Calm     42 % 0 mm
20:47 1 °C -10.2 °C 1032.7 hPa Calm   1.6 km/h 43 % 0 mm
20:52 0.8 °C -10.4 °C 1032.7 hPa Calm   3.2 km/h 43 % 0 mm
20:58 0.7 °C -10.5 °C 1033.1 hPa WNW 1.8 km/h 3.7 km/h 43 % 0 mm
21:03 0.5 °C -10.9 °C 1033.1 hPa WNW 0.2 km/h 1.9 km/h 42 % 0 mm
21:08 0.4 °C -10.8 °C 1033.4 hPa WNW 0.3 km/h 1.9 km/h 43 % 0 mm
21:13 0.2 °C -10.6 °C 1033.4 hPa WNW 2.6 km/h 5.6 km/h 44 % 0 mm
21:18 0.1 °C -10.5 °C 1033.7 hPa SW 6.8 km/h 11.1 km/h 45 % 0 mm
21:23 -0.1 °C -9.5 °C 1034.1 hPa SSW 3.4 km/h 5.6 km/h 49 % 0 mm
21:28 -0.1 °C -8.5 °C 1034.4 hPa SW 3.2 km/h 5.6 km/h 53 % 0 mm
21:33 0 °C -7.7 °C 1034.1 hPa SW 5.3 km/h 7.4 km/h 56 % 0 mm
21:38 0.1 °C -7.4 °C 1034.1 hPa SW 2.6 km/h 5.6 km/h 57 % 0 mm
21:43 0.2 °C -7.1 °C 1034.1 hPa SW 4.5 km/h 7.4 km/h 58 % 0 mm
21:48 0.2 °C -6.7 °C 1033.7 hPa SW 3.4 km/h 5.6 km/h 60 % 0 mm
21:53 0.3 °C -6.4 °C 1033.7 hPa SW 6.4 km/h 6.4 km/h 61 % 0 mm
21:58 0.4 °C -6.1 °C 1033.7 hPa SW 4.8 km/h 5.6 km/h 62 % 0 mm
22:03 0.4 °C -5.8 °C 1034.1 hPa SSW 5.5 km/h 8 km/h 63 % 0 mm
22:08 0.5 °C -5.7 °C 1034.4 hPa SSW 4.7 km/h 7.4 km/h 63 % 0 mm
22:13 0.6 °C -5.7 °C 1034.1 hPa SW 2.7 km/h 5.6 km/h 63 % 0 mm
22:14 0.6 °C -5.7 °C 1034.4 hPa SW 2.6 km/h 5.6 km/h 63 % 0 mm
22:19 0.6 °C -5.4 °C 1034.4 hPa SW 2.7 km/h 9.3 km/h 64 % 0 mm
22:24 0.7 °C -5.2 °C 1034.1 hPa SSW 3.9 km/h 6.4 km/h 65 % 0 mm
22:29 0.7 °C -4.9 °C 1034.1 hPa SW 6.1 km/h 8 km/h 66 % 0 mm
22:34 0.7 °C -4.9 °C 1034.1 hPa SW 6.4 km/h 11.3 km/h 66 % 0 mm
22:39 0.8 °C -4.7 °C 1034.1 hPa SSW 3.5 km/h 6.4 km/h 67 % 0 mm
22:44 0.8 °C -4.6 °C 1034.1 hPa WSW 2.1 km/h 5.6 km/h 67 % 0 mm
22:49 0.8 °C -4.6 °C 1034.1 hPa WSW 3.5 km/h 7.4 km/h 67 % 0 mm
22:54 0.8 °C -4.4 °C 1033.7 hPa SW 1.9 km/h 5.6 km/h 68 % 0 mm
22:59 0.8 °C -4.4 °C 1033.7 hPa SW 5.3 km/h 6.4 km/h 68 % 0 mm
23:04 0.8 °C -4.2 °C 1033.4 hPa SW 4 km/h 7.4 km/h 69 % 0 mm
23:09 0.8 °C -4.2 °C 1033.1 hPa SW 4.2 km/h 7.4 km/h 69 % 0 mm
23:14 0.8 °C -4.2 °C 1033.1 hPa SW 1.8 km/h 6.4 km/h 69 % 0 mm
23:19 0.8 °C -4 °C 1033.1 hPa SSW 4.2 km/h 7.4 km/h 70 % 0 mm
23:24 0.8 °C -4 °C 1033.1 hPa SSW 3.7 km/h 4.8 km/h 70 % 0 mm
23:29 0.8 °C -4 °C 1033.1 hPa South 0.5 km/h 3.7 km/h 70 % 0 mm
23:34 0.8 °C -4 °C 1032.7 hPa South 1 km/h 5.6 km/h 70 % 0 mm
23:39 0.9 °C -3.8 °C 1032.7 hPa SSW 2.7 km/h 5.6 km/h 71 % 0 mm
23:45 0.8 °C -3.8 °C 1032.7 hPa SSW 0.8 km/h 5.6 km/h 71 % 0 mm
23:50 0.9 °C -3.8 °C 1032.7 hPa SSW 2.3 km/h 5.6 km/h 71 % 0 mm
23:55 0.9 °C -3.6 °C 1032.7 hPa SSW 2.7 km/h 5.6 km/h 72 % 0 mm
Crab Meadow Weather
Compliments of Weather Underground - 3 mb

Script developed by  Jim McMurry - jmcmurry@mwt.net Adapted for the template by  Wim van der Kuil - Leuven-Template.eu

Cloud Base: The cloud base is the distance from the sea level to the base of the clouds. It is estimated using the current temperature and humidity to indicate an altitude where the air could be cold enough for clouds to form. There may or may not be clouds at that altitude (or at any altitude)